AAL188 KMIA-TGPY

Flight info

Callsign AAL188
Flight time N/A
Altitude 37000
Route KLADA2 BITAC Y290 HAGIT Y421 HARBG/N0488F390 L452 MUNOZ DCT GEECE
Aircraft B77W/H-SDE1E2E3FGHIJ2J3J4J5M1RWXY/LB1D1

Departure

Time N/A
Airport Miami International Airport (KMIA)

Arrival

Time 2026-05-01 08:33
Airport Maurice Bishop International Airport (TGPY)
Time Latitude Longitude Altitude Speed Heading
2026-05-01 07:23 18.58776 -67.29769 36949 ft 524 kts 139°
2026-05-01 07:24 18.51424 -67.21219 36947 ft 524 kts 139°
2026-05-01 07:24 18.46520 -67.15523 36954 ft 525 kts 139°
2026-05-01 07:25 18.41608 -67.09823 36956 ft 526 kts 139°
2026-05-01 07:25 18.36689 -67.04119 36956 ft 526 kts 139°
2026-05-01 07:26 18.31788 -66.98442 36949 ft 527 kts 139°
2026-05-01 07:26 18.26828 -66.92700 36963 ft 527 kts 139°
2026-05-01 07:27 18.21898 -66.86998 36962 ft 526 kts 139°
2026-05-01 07:27 18.16978 -66.81316 36977 ft 526 kts 139°
2026-05-01 07:28 18.12089 -66.75675 36951 ft 525 kts 139°
2026-05-01 07:28 18.07168 -66.69995 36943 ft 525 kts 139°
2026-05-01 07:29 18.03044 -66.65241 36951 ft 525 kts 139°
2026-05-01 07:29 17.98144 -66.59604 36951 ft 526 kts 139°
2026-05-01 07:30 17.93205 -66.53927 36960 ft 526 kts 139°
2026-05-01 07:30 17.88269 -66.48252 36953 ft 525 kts 139°
2026-05-01 07:31 17.83345 -66.42595 36955 ft 524 kts 139°
2026-05-01 07:32 17.71042 -66.28490 36948 ft 523 kts 139°
2026-05-01 07:33 17.63704 -66.20093 36948 ft 522 kts 139°
2026-05-01 07:33 17.56341 -66.11677 36940 ft 521 kts 138°
2026-05-01 07:34 17.48996 -66.03292 36943 ft 519 kts 138°
2026-05-01 07:35 17.44111 -65.97721 36939 ft 518 kts 138°
2026-05-01 07:35 17.39269 -65.92205 36944 ft 517 kts 138°
2026-05-01 07:36 17.34393 -65.86655 36942 ft 517 kts 138°
2026-05-01 07:36 17.29530 -65.81124 36942 ft 517 kts 138°
2026-05-01 07:37 17.22223 -65.72822 36945 ft 517 kts 138°
2026-05-01 07:37 17.17361 -65.67295 36939 ft 515 kts 137°
2026-05-01 07:38 17.12514 -65.61804 36942 ft 514 kts 137°
2026-05-01 07:39 17.05237 -65.53564 36942 ft 514 kts 137°
2026-05-01 07:39 16.97955 -65.45324 36943 ft 515 kts 137°
2026-05-01 07:40 16.93090 -65.39825 36943 ft 516 kts 137°
2026-05-01 07:40 16.88250 -65.34358 36946 ft 516 kts 137°
2026-05-01 07:41 16.83371 -65.28850 36928 ft 517 kts 137°
2026-05-01 07:42 16.75988 -65.20580 36937 ft 521 kts 137°
2026-05-01 07:42 16.71072 -65.15011 36956 ft 523 kts 137°
2026-05-01 07:43 16.66130 -65.09431 36953 ft 524 kts 137°
2026-05-01 07:43 16.58678 -65.01052 36945 ft 525 kts 137°
2026-05-01 07:44 16.48749 -64.89908 36944 ft 523 kts 137°
2026-05-01 07:45 16.43841 -64.84406 36945 ft 522 kts 137°
2026-05-01 07:45 16.38889 -64.78858 36940 ft 521 kts 137°
2026-05-01 07:46 16.33960 -64.73341 36945 ft 520 kts 137°
2026-05-01 07:47 16.26593 -64.65103 36939 ft 519 kts 137°
2026-05-01 07:47 16.21667 -64.59601 36942 ft 519 kts 137°
2026-05-01 07:48 16.14255 -64.51329 36942 ft 520 kts 137°
2026-05-01 07:48 16.09317 -64.45824 36938 ft 520 kts 137°
2026-05-01 07:49 16.01943 -64.37609 36943 ft 520 kts 137°
2026-05-01 07:50 15.97002 -64.32111 36945 ft 520 kts 137°
2026-05-01 07:50 15.89575 -64.23854 36945 ft 521 kts 137°
2026-05-01 07:51 15.84649 -64.18384 37038 ft 523 kts 137°
2026-05-01 07:51 15.82158 -64.15620 37349 ft 522 kts 137°
2026-05-01 07:52 15.77205 -64.10121 38163 ft 518 kts 137°
2026-05-01 07:52 15.74753 -64.07402 38537 ft 516 kts 137°
2026-05-01 07:52 15.72297 -64.04680 38786 ft 516 kts 137°
2026-05-01 07:53 15.67364 -63.99219 38913 ft 520 kts 137°
2026-05-01 07:53 15.64887 -63.96478 38938 ft 519 kts 137°
2026-05-01 07:53 15.59998 -63.91066 38940 ft 516 kts 137°
2026-05-01 07:55 15.47766 -63.77549 38947 ft 513 kts 137°
2026-05-01 07:56 15.35528 -63.64054 38945 ft 515 kts 137°
2026-05-01 07:57 15.28165 -63.55944 38948 ft 516 kts 137°
2026-05-01 07:58 15.18337 -63.45133 38947 ft 517 kts 137°
2026-05-01 07:59 15.08462 -63.34284 38951 ft 517 kts 137°
2026-05-01 08:00 14.91655 -63.21360 38966 ft 497 kts 163°
2026-05-01 08:01 14.78785 -63.16053 38942 ft 498 kts 163°
2026-05-01 08:02 14.69143 -63.12004 38937 ft 499 kts 162°
2026-05-01 08:03 14.59490 -63.07936 38946 ft 499 kts 162°
2026-05-01 08:03 14.49890 -63.03899 38943 ft 498 kts 162°
2026-05-01 08:04 14.37051 -62.98508 38937 ft 498 kts 162°
2026-05-01 08:05 14.27428 -62.94471 38939 ft 497 kts 162°
2026-05-01 08:06 14.17805 -62.90438 38941 ft 497 kts 162°
2026-05-01 08:07 14.04990 -62.85073 38941 ft 497 kts 162°
2026-05-01 08:08 13.95411 -62.81068 38937 ft 497 kts 162°
2026-05-01 08:09 13.82582 -62.75708 38942 ft 497 kts 162°
2026-05-01 08:09 13.76171 -62.73033 38933 ft 498 kts 162°
2026-05-01 08:10 13.69639 -62.70313 37429 ft 508 kts 162°
2026-05-01 08:10 13.63100 -62.67584 35847 ft 507 kts 162°
2026-05-01 08:11 13.56536 -62.64849 33979 ft 512 kts 162°
2026-05-01 08:11 13.49911 -62.62092 31774 ft 507 kts 161°
2026-05-01 08:12 13.43515 -62.59424 30071 ft 495 kts 160°
2026-05-01 08:12 13.40355 -62.58109 29211 ft 482 kts 160°
2026-05-01 08:12 13.34217 -62.55554 27776 ft 473 kts 160°
2026-05-01 08:13 13.31176 -62.54290 27098 ft 470 kts 160°
2026-05-01 08:13 13.28148 -62.53035 26424 ft 468 kts 160°
2026-05-01 08:13 13.22119 -62.50532 25039 ft 466 kts 160°
2026-05-01 08:14 13.19116 -62.49285 24353 ft 465 kts 160°
2026-05-01 08:14 13.17136 -62.48463 23903 ft 464 kts 160°
2026-05-01 08:14 13.14149 -62.47223 23166 ft 462 kts 160°
2026-05-01 08:14 13.11175 -62.45989 22404 ft 459 kts 160°
2026-05-01 08:15 13.08226 -62.44766 21732 ft 454 kts 159°
2026-05-01 08:15 13.01490 -62.41978 20176 ft 444 kts 159°
2026-05-01 08:15 12.99563 -62.41176 19768 ft 440 kts 160°
2026-05-01 08:16 12.96746 -62.40007 19139 ft 435 kts 159°
2026-05-01 08:16 12.93988 -62.38861 18591 ft 429 kts 159°
2026-05-01 08:16 12.91250 -62.37728 18105 ft 421 kts 159°
2026-05-01 08:16 12.88541 -62.36610 17232 ft 420 kts 159°
2026-05-01 08:17 12.85847 -62.35494 16619 ft 415 kts 158°
2026-05-01 08:17 12.83194 -62.34393 16067 ft 408 kts 158°
2026-05-01 08:17 12.80552 -62.33301 15335 ft 406 kts 158°
2026-05-01 08:17 12.77991 -62.32245 14624 ft 389 kts 158°
2026-05-01 08:18 12.75534 -62.31229 14040 ft 377 kts 158°
2026-05-01 08:18 12.70677 -62.29218 12833 ft 375 kts 157°
2026-05-01 08:19 12.65855 -62.27228 11705 ft 371 kts 157°
2026-05-01 08:19 12.63468 -62.26240 11156 ft 370 kts 156°
2026-05-01 08:19 12.61107 -62.25262 10887 ft 360 kts 157°
2026-05-01 08:19 12.58846 -62.24330 10703 ft 338 kts 157°
2026-05-01 08:20 12.56766 -62.23477 10545 ft 314 kts 156°
2026-05-01 08:20 12.54811 -62.22670 10409 ft 292 kts 156°
2026-05-01 08:20 12.52986 -62.21918 10284 ft 275 kts 156°
2026-05-01 08:20 12.51240 -62.21197 10186 ft 265 kts 156°
2026-05-01 08:21 12.49551 -62.20498 10077 ft 262 kts 156°
2026-05-01 08:21 12.47813 -62.19781 9994 ft 276 kts 156°
2026-05-01 08:21 12.45982 -62.19020 9708 ft 290 kts 156°
2026-05-01 08:21 12.44130 -62.18256 9350 ft 283 kts 156°
2026-05-01 08:22 12.42332 -62.17516 9033 ft 276 kts 157°
2026-05-01 08:22 12.40555 -62.16784 8724 ft 275 kts 157°
2026-05-01 08:22 12.38779 -62.16056 8400 ft 274 kts 157°
2026-05-01 08:22 12.37019 -62.15325 8091 ft 273 kts 157°
2026-05-01 08:23 12.35260 -62.14591 7767 ft 272 kts 155°
2026-05-01 08:23 12.33552 -62.13768 7466 ft 271 kts 152°
2026-05-01 08:23 12.31880 -62.12914 7160 ft 272 kts 152°
2026-05-01 08:23 12.30184 -62.12045 6844 ft 272 kts 152°
2026-05-01 08:24 12.28491 -62.11181 6521 ft 272 kts 153°
2026-05-01 08:24 12.26800 -62.10314 6201 ft 272 kts 153°
2026-05-01 08:24 12.25103 -62.09450 5878 ft 272 kts 153°
2026-05-01 08:24 12.23413 -62.08595 5558 ft 271 kts 153°
2026-05-01 08:25 12.21719 -62.07740 5230 ft 270 kts 153°
2026-05-01 08:25 12.20034 -62.06890 4911 ft 270 kts 152°
2026-05-01 08:25 12.18369 -62.06052 4608 ft 269 kts 152°
2026-05-01 08:25 12.16691 -62.05205 4285 ft 268 kts 152°
2026-05-01 08:26 12.15030 -62.04368 3988 ft 265 kts 152°
2026-05-01 08:26 12.13404 -62.03551 3690 ft 254 kts 151°
2026-05-01 08:26 12.11827 -62.02757 3428 ft 252 kts 151°
2026-05-01 08:26 12.10262 -62.01968 3127 ft 249 kts 150°
2026-05-01 08:27 12.08720 -62.01189 2922 ft 245 kts 151°
2026-05-01 08:27 12.07191 -62.00423 2750 ft 244 kts 150°
2026-05-01 08:27 12.05689 -61.99666 2612 ft 241 kts 150°
2026-05-01 08:27 12.04192 -61.98911 2410 ft 237 kts 151°
2026-05-01 08:28 12.02733 -61.98174 2234 ft 232 kts 150°
2026-05-01 08:28 12.01385 -61.97362 2024 ft 215 kts 131°
2026-05-01 08:28 12.00704 -61.96139 1953 ft 189 kts 104°
2026-05-01 08:28 12.00471 -61.94891 1935 ft 169 kts 92°
2026-05-01 08:29 12.00455 -61.93722 1927 ft 163 kts 89°
2026-05-01 08:29 12.00456 -61.92569 1842 ft 161 kts 89°
2026-05-01 08:29 12.00456 -61.91427 1801 ft 162 kts 89°
2026-05-01 08:29 12.00456 -61.90264 1765 ft 162 kts 91°
2026-05-01 08:30 12.00452 -61.89145 1718 ft 153 kts 90°
2026-05-01 08:30 12.00447 -61.88059 1563 ft 151 kts 90°
2026-05-01 08:30 12.00444 -61.87016 1366 ft 142 kts 91°
2026-05-01 08:30 12.00443 -61.86057 1200 ft 132 kts 90°
2026-05-01 08:31 12.00439 -61.85120 1129 ft 133 kts 90°
2026-05-01 08:31 12.00422 -61.84160 1059 ft 139 kts 89°
2026-05-01 08:31 12.00411 -61.83153 806 ft 141 kts 88°
2026-05-01 08:31 12.00413 -61.82159 556 ft 136 kts 90°
2026-05-01 08:32 12.00416 -61.81220 277 ft 133 kts 91°
2026-05-01 08:32 12.00418 -61.80245 155 ft 140 kts 90°
2026-05-01 08:32 12.00414 -61.79266 49 ft 135 kts 90°
2026-05-01 08:32 12.00411 -61.78413 45 ft 100 kts 92°
2026-05-01 08:33 12.00403 -61.77866 41 ft 52 kts 90°
2026-05-01 08:33 12.00403 -61.77549 52 ft 35 kts 90°
2026-05-01 08:33 12.00402 -61.77424 56 ft 10 kts 91°
2026-05-01 08:33 12.00419 -61.77387 52 ft 3 kts 14°
2026-05-01 08:34 12.00429 -61.77406 52 ft 7 kts 269°
2026-05-01 08:34 12.00407 -61.77474 54 ft 14 kts 255°
2026-05-01 08:34 12.00404 -61.77573 51 ft 14 kts 267°
2026-05-01 08:34 12.00403 -61.77705 46 ft 23 kts 270°
2026-05-01 08:35 12.00404 -61.77897 40 ft 22 kts 270°
2026-05-01 08:35 12.00403 -61.78078 38 ft 29 kts 270°
2026-05-01 08:35 12.00405 -61.78296 42 ft 30 kts 270°
2026-05-01 08:35 12.00406 -61.78482 46 ft 18 kts 270°
2026-05-01 08:36 12.00408 -61.78559 47 ft 6 kts 286°
2026-05-01 08:36 12.00446 -61.78589 47 ft 7 kts 338°
2026-05-01 08:36 12.00498 -61.78596 47 ft 8 kts 358°
2026-05-01 08:36 12.00536 -61.78597 48 ft 2 kts 359°
2026-05-01 08:37 12.00538 -61.78597 48 ft 0 kts 359°
2026-05-01 08:37 12.00555 -61.78596 49 ft 5 kts
2026-05-01 08:37 12.00577 -61.78581 50 ft 1 kts 62°
2026-05-01 08:37 12.00585 -61.78548 50 ft 8 kts 77°
2026-05-01 08:38 12.00590 -61.78481 50 ft 10 kts 91°
2026-05-01 08:38 12.00597 -61.78450 50 ft 3 kts 45°
2026-05-01 08:38 12.00624 -61.78444 51 ft 3 kts
2026-05-01 08:38 12.00640 -61.78443 48 ft 3 kts
2026-05-01 08:39 12.00643 -61.78443 46 ft 0 kts 359°